C/2017 D3 ( ATLAS )

Japanese version
Home page
Updated on May 21, 2018

---------------------------------------------------------------------

* Profile

Discovery Date February 23, 2017
Magnitude 18.0 mag
Discoverer Asteroid Terrestrial-impact Last Alert System (ATLAS) Team

* Pictures

* Orbital Elements

Epoch 2017 May 7.0 TT = JDT 2457880.5
T 2017 Apr. 26.87245 TT                                 MPCW
q   4.9713490            (2000.0)            P               Q
z  -0.0004243      Peri.  340.77285     -0.91589237     -0.39039764
 +/-0.0000013      Node   186.60251     -0.16806099     +0.16152960
e   1.0021095      Incl.  125.64431     -0.36454996     +0.90636520
From 372 observations 2017 Feb. 10-2018 Mar. 26, mean residual 0".5.

* Magnitudes Graph

        m1 = 3.0 + 5 log d + 15.0 log r(t - 200)

---------------------------------------------------------------------

The orbital elements are published on M.P.E.C. 2018-F152.
The magnitudes graphs are made with Comet for Windows.

---------------------------------------------------------------------

Copyright(C) Seiichi Yoshida (comet@aerith.net). All rights reserved.